This demonstration page uses our WeatherBlox Daily Observations layout. Learn more.

41.55636, -103.73856

Hourly Observations for October 1, 2020

Temp ( °F °C ) Dew Point ( °F °C ) Humidity (%) Winds ( mph kmh ) Pressure ( in mb ) Visibility ( mi km ) Precip ( " mm )
12:56 am 00:56 Clear 41 4.8 23 -5.1 49 49 W 6 9 30.41 1030 10 16.0934 0 0
1:56 am 01:56 Clear 41 4.9 21 -6 46 46 W 9 15 30.42 1030 10 16.0934 0 0
2:56 am 02:56 Clear 38 3.2 21 -6 51 51 W 6 9 30.43 1031 10 16.0934 0 0
3:56 am 03:56 Clear 39 4.1 24 -4.5 54 54 NW 10 17 30.42 1030 10 16.0934 0 0
4:56 am 04:56 Clear 36 2.1 24 -4.6 62 62 W 5 7 30.45 1031 10 16.0934 0 0
5:56 am 05:56 Clear 38 3.6 23 -4.9 54 54 WNW 8 13 30.44 1031 10 16.0934 0 0
6:56 am 06:56 Sunny 35 1.7 23 -5.1 61 61 SW 5 7 30.48 1032 10 16.0934 0 0
7:56 am 07:56 Sunny 37 3 24 -4.3 59 59 SW 5 7 30.51 1033 10 16.0934 0 0
8:56 am 08:56 Sunny 46 7.8 23 -4.8 41 41 NW 8 13 30.48 1032 10 16.0934 0 0
9:56 am 09:56 Sunny 51 10.5 21 -6.2 31 31 NNW 5 7 30.47 1032 10 16.0934 0 0
10:56 am 10:56 Sunny 54 12.2 20 -6.4 27 27 Calm 30.46 1032 10 16.0934 0 0
11:56 am 11:56 Sunny 57 13.7 21 -6 25 25 NNW 10 17 30.43 1031 10 16.0934 0 0
12:56 pm 12:56 Sunny 58 14.5 23 -5.1 26 26 NNW 7 11 30.41 1030 10 16.0934 0 0
1:56 pm 13:56 Sunny 60 15.3 25 -4 26 26 NW 8 13 30.36 1028 10 16.0934 0 0
2:56 pm 14:56 Sunny 62 16.5 25 -3.8 25 25 NNW 6 9 30.33 1027 10 16.0934 0 0
3:56 pm 15:56 Sunny 62 16.7 26 -3.3 25 25 NNW 8 13 30.29 1026 10 16.0934 0 0
4:56 pm 16:56 Sunny 62 16.6 26 -3.3 26 26 NNW 5 7 30.28 1025 10 16.0934 0 0
5:56 pm 17:56 Mostly Cloudy 57 13.9 27 -2.7 32 32 NE 6 9 30.29 1026 10 16.0934 0 0
6:56 pm 18:56 Mostly Cloudy 57 14.1 26 -3.4 30 30 Calm 30.3 1026 10 16.0934 0 0
7:56 pm 19:56 Mostly Cloudy 53 11.5 26 -3.1 36 36 S 9 15 30.29 1026 10 16.0934 0 0
8:56 pm 20:56 Clear 46 7.8 27 -2.8 47 47 S 9 15 30.29 1026 10 16.0934 0 0
9:56 pm 21:56 Mostly Clear 48 9.1 27 -2.7 44 44 S 8 13 30.26 1025 10 16.0934 0 0
10:56 pm 22:56 Mostly Cloudy 51 10.6 27 -3 39 39 SSW 8 13 30.22 1023 10 16.0934 0 0
11:56 pm 23:56 Mostly Cloudy 50 9.9 27 -3 41 41 S 6 9 30.22 1023 10 16.0934 0 0

Powered by AerisWeather